SBLOSBKP

Guest
Details From SBLO - Londrina
To SBKP - Sao Paulo Viracopos
Flight Number -
Tags decoded
Created
Modified
Stats Distance 221 nm / 410 km
Max Altitude 0 ft / 0 m
Waypoints 2
Social Downloads 0
Likes 0
Share VATSIM

Download

Looking for another format? Having issues loading an existing format? Contact us
Advertisement - Login to hide

Notes

Requested: SBLO UZ65 EDMOX UM411 PUPSI SBKP Unmatched points: UZ65 EDMOX UM411 PUPSI

Route

SBLO SBKP

ID Type Via Altitude (ft/m) Position (lat/lon) Dist (leg/tot) Name
O SBLO APT - 0 / 0 -23.33362 / -51.13007 - / 0 nm Londrina
O SBKP APT - 0 / 0 -23.00738 / -47.13452 221 / 221 nm Sao Paulo Viracopos

Altitude Profile

Advertisement - Login to hide

Weather


0- 5 10 15 20 25 30 35+ Temperature / °C

Clouds and Precipitation
Forecast for 2019-01-22 12:00 UTC. Updated an hour ago

Ground ~20,000 ft ~40,000 ft Winds

SBLO

Details ICAO SBLO (LDB)
Name Governador Jose Richa Airport
Region Brazil
Timezone America/Sao_Paulo (UTC-2.0)
Stats Elevation 1,868 ft / 569 m (AMSL)
Location -23.333600° -51.130100°
Runways 1
Magnetic Variation 19.241° W

METAR

SBLO 221000Z 00000KT CAVOK 26/23 Q1017

Decode

TAF

TAF TAF SBLO 220230Z 2206/2218 10006KT CAVOK TN22/2208Z TX37/2218Z RMK PEL

Decode

Departure Runways

ID Width Length Bearing (true/mag) Surface Threshold Overrun Markings Lighting
13 148 ft / 45 m 6,888 ft / 2,100 m 110.10° / 129.35° ASPHALT 1,083 ft / 330 m 0 ft / 0 m APP CENTERLINE EDGE THRESHOLD REIL-OMNI
31 148 ft / 45 m 6,888 ft / 2,100 m 290.10° / 309.34° ASPHALT 0 ft / 0 m 0 ft / 0 m APP CENTERLINE EDGE THRESHOLD REIL-OMNI

SBKP

Details ICAO SBKP (VCP)
Name Viracopos Intl
Region Brazil
Timezone America/Sao_Paulo (UTC-2.0)
Stats Elevation 2,156 ft / 657 m (AMSL)
Location -23.007400° -47.134500°
Runways 1
Magnetic Variation 21.334° W

METAR

SBKP 221000Z 10005KT CAVOK 25/20 Q1018

Decode

TAF

TAF SBKP 220100Z 2206/2306 12008KT 8000 NSCTN22/2209Z TX33/2217Z BECMG 2208/2210 07005KT BECMG 2212/2214 34007KT SCT040 BECMG 2215/2217 30010KT PROB30 2217/2219 23005KT TSRA SCT035 FEW045CB BECMG 2219/2221 13010KT NSC RMK PHG

Decode

Destination Runways

ID Width Length Bearing (true/mag) Surface Threshold Overrun Markings Lighting
15 148 ft / 45 m 10,666 ft / 3,251 m 127.88° / 149.21° ASPHALT 0 ft / 0 m 171 ft / 52 m PREC-APP CENTERLINE EDGE THRESHOLD MALSR TDZ REIL-OMNI
33 148 ft / 45 m 10,666 ft / 3,251 m 307.87° / 329.20° ASPHALT 308 ft / 94 m 187 ft / 57 m PREC-APP CENTERLINE EDGE THRESHOLD TDZ REIL-OMNI

Approach Navaids

Runway Type Ident Frequency Range Bearing (true/mag) Slope Elevation
15 MM MM - - 127.90° / 149.24 ° - 2,170 ft / 661 m (AMSL)
15 GS IKP 110.30 MHz 10 nm / 19 km 128.80° / 150.14 ° 3.00° 2,170 ft / 661 m (AMSL)
15 OM OM - - 127.90° / 149.24 ° - 2,170 ft / 661 m (AMSL)
15 LOC-ILS IKP 110.30 MHz 18 nm / 33 km 127.95° / 149.29 ° - 2,170 ft / 661 m (AMSL)

Popular Alternatives